Location: Amsterdam
(30.7274°N, 84.4357°W)
Time: 19:18:49
(UTC+00:00)

Vanguard 1 Rocket - Pass Details

Date: 22 February 2026
Orbit: 653 x 4214 km, 34.3° (Epoch: 11 March)

Event Time Altitude Azimuth Distance (km) Brightness Sun altitude
Rises 23:37:37 0° 289° (WNW) 5,881 12.8 -2.2°
Reaches altitude 10° 23:40:51 10° 285° (WNW) 5,247 12.6 -2.9°
Maximum altitude 23:57:47 60° 211° (SSW) 4,026 10.9 -6.5°
Drops below altitude 10° 00:23:06 10° 139° (SE) 7,368 11.7 -11.9°
Sets 00:28:50 0° 135° (SE) 8,259 11.9 -13.1°
